SRMSAT

Satellite information

Favourite Embed

Satellite Type and Status

PAYLOADIN ORBIT

Key statistics

Satellite SRMSAT at a glance.

Uptime

5177

Days in orbit

Revolutions

≈ 14.1

Per day

Orbit

LEO

Low Earth Orbit

Inclination

20.0

Latest

Satellite identification and parameters

Extended collection of information and parameters for SRMSAT.

Object identification

Identified? True

Debris? False

Object name: SRMSAT

International designator: 2011-058D

Object number (NORAD): 37841

Object ID (CCSDS): 37841

Country: INDIA (IND)

Current information (Y/N): Y

RCS size: MEDIUM

Orbital parameters

Period: 102.018 minutes

Inclination: 19.9712 deg

SMA: 7232.34 km

Apoapsis: 862.723 km

Periapsis: 845.687 km

RAAN: 102.4443 deg

Eccentricy: 0.00117776

Argument of periapsis: 323.4918 deg

Mean anomaly: 63.7335 deg

Mean motion: 14.11511811 rev/day

Mean motion (dot): 0.00000492 rev/day2

B* drag term: 0.0001231682 1/REarth

Two-line elements (TLE)

Creation date: Dec. 14, 2025, 3:07 a.m.

Reference frame: TEME

Reference center: EARTH

Epoch: Dec. 13, 2025, 3:35 p.m. UTC

TLE line 0: 0 SRMSAT

TLE line 1: 1 37841U 11058D 25347.64947497 .00000492 00000-0 12317-3 0 9991

TLE line 2: 2 37841 19.9712 102.4443 0011778 323.4918 63.7335 14.11511811731570

Live tracking on map

Real-time ground track for satellite SRMSAT.

In-orbit conjunctions

There are no conjunctions computed for SRMSAT, at the moment. Check back to stay up to date, as we update our databases every day.

Go to all conjunctions

Associated space launch

SRMSAT was lifted into orbit during the mission ‘PSLV-CA | Megha-Tropiques’, on board a PSLV space rocket.

The launch took place on Oct. 12, 2011, 5:31 a.m. from Satish Dhawan Space Centre First Launch Pad.

For more information about the launch, click the button.

Launch to space PSLV-CA | Megha-Tropiques
PSLV-CA | Megha-Tropiques

Agency: N/A

Status: Launch Successful

Launch date: Oct. 12, 2011, 5:31 a.m. UTC

Rocket: PSLV

Launch pad: Satish Dhawan Space Centre First Launch Pad

Location: Satish Dhawan Space Centre, India

...

Latest news about this satellite

There are no fresh news available about this satellite. Check back as we update our databases every day.


Newsletter sign-up

Weekly statistics, charts and insights to help you stay on top of the space industry.